VRG1424 SBGL-SBNT

Flight info

Callsign VRG1424
Flight time N/A
Altitude 35000
Route PCX DCT IMBAP UZ42 DAKEN UZ73 ESMIG UZ72 TOGUN
Aircraft B752/M-SDE2E3FGHIJ3J4J7RWXY/LB1

Departure

Time 2026-04-28 16:00
Airport Rio Galeão – Tom Jobim International Airport (SBGL)

Arrival

Time N/A
Airport Natal Air Force Base (SBNT)
Time Latitude Longitude Altitude Speed Heading
2026-04-28 15:36 -22.82791 -43.24482 33 ft 0 kts 214°
2026-04-28 15:47 -22.82787 -43.24479 32 ft 2 kts 214°
2026-04-28 15:47 -22.82774 -43.24470 32 ft 2 kts 214°
2026-04-28 15:47 -22.82762 -43.24461 32 ft 2 kts 214°
2026-04-28 15:48 -22.82752 -43.24453 32 ft 0 kts 214°
2026-04-28 15:48 -22.82741 -43.24447 32 ft 2 kts 182°
2026-04-28 15:48 -22.82727 -43.24451 32 ft 2 kts 144°
2026-04-28 15:48 -22.82721 -43.24457 32 ft 0 kts 122°
2026-04-28 15:49 -22.82719 -43.24461 32 ft 0 kts 125°
2026-04-28 15:51 -22.82723 -43.24455 32 ft 5 kts 126°
2026-04-28 15:51 -22.82773 -43.24383 32 ft 17 kts 128°
2026-04-28 15:51 -22.82846 -43.24278 32 ft 16 kts 128°
2026-04-28 15:51 -22.82909 -43.24181 31 ft 13 kts 124°
2026-04-28 15:52 -22.82960 -43.24102 31 ft 11 kts 122°
2026-04-28 15:52 -22.82999 -43.24036 32 ft 9 kts 125°
2026-04-28 15:52 -22.83026 -43.23980 32 ft 6 kts 94°
2026-04-28 15:52 -22.83016 -43.23942 33 ft 3 kts 56°
2026-04-28 15:53 -22.82995 -43.23919 34 ft 6 kts 38°
2026-04-28 15:53 -22.82945 -43.23880 35 ft 11 kts 36°
2026-04-28 15:53 -22.82869 -43.23821 37 ft 15 kts 35°
2026-04-28 15:53 -22.82767 -43.23770 39 ft 4 kts 345°
2026-04-28 15:54 -22.82738 -43.23809 38 ft 8 kts 303°
2026-04-28 15:54 -22.82699 -43.23877 38 ft 14 kts 302°
2026-04-28 15:54 -22.82633 -43.23991 38 ft 21 kts 302°
2026-04-28 15:54 -22.82530 -43.24152 36 ft 28 kts 305°
2026-04-28 15:55 -22.82412 -43.24331 32 ft 30 kts 305°
2026-04-28 15:55 -22.82288 -43.24517 32 ft 31 kts 305°
2026-04-28 15:55 -22.82156 -43.24715 28 ft 32 kts 305°
2026-04-28 15:55 -22.82025 -43.24913 26 ft 31 kts 306°
2026-04-28 15:56 -22.81901 -43.25100 26 ft 29 kts 305°
2026-04-28 15:56 -22.81782 -43.25280 27 ft 27 kts 304°
2026-04-28 15:56 -22.81675 -43.25442 27 ft 26 kts 306°
2026-04-28 15:56 -22.81570 -43.25600 26 ft 24 kts 306°
2026-04-28 15:57 -22.81473 -43.25745 26 ft 23 kts 306°
2026-04-28 15:57 -22.81382 -43.25883 25 ft 22 kts 305°
2026-04-28 15:57 -22.81291 -43.26020 24 ft 22 kts 305°
2026-04-28 15:57 -22.81199 -43.26158 23 ft 22 kts 306°
2026-04-28 15:58 -22.81126 -43.26291 23 ft 11 kts 276°
2026-04-28 15:58 -22.81175 -43.26342 22 ft 10 kts 184°
2026-04-28 15:58 -22.81236 -43.26346 22 ft 7 kts 177°
2026-04-28 15:58 -22.81276 -43.26321 22 ft 0 kts 129°
2026-04-28 15:59 -22.81277 -43.26319 22 ft 0 kts 128°
2026-04-28 15:59 -22.81367 -43.26186 23 ft 50 kts 126°
2026-04-28 15:59 -22.81688 -43.25700 25 ft 106 kts 126°
2026-04-28 15:59 -22.82233 -43.24882 28 ft 155 kts 124°
2026-04-28 16:00 -22.82920 -43.23883 124 ft 177 kts 129°
2026-04-28 16:00 -22.83487 -43.22651 333 ft 184 kts 104°
2026-04-28 16:00 -22.83469 -43.21275 654 ft 183 kts 80°
2026-04-28 16:00 -22.83170 -43.19951 956 ft 183 kts 75°
2026-04-28 16:01 -22.82750 -43.18608 1176 ft 196 kts 70°
2026-04-28 16:01 -22.82070 -43.17262 1460 ft 213 kts 46°
2026-04-28 16:01 -22.80722 -43.16437 1700 ft 236 kts 13°
2026-04-28 16:01 -22.79053 -43.16044 2094 ft 250 kts 17°
2026-04-28 16:02 -22.77350 -43.15432 2564 ft 262 kts 21°
2026-04-28 16:02 -22.75663 -43.14728 3314 ft 262 kts 22°
2026-04-28 16:02 -22.73986 -43.13971 4017 ft 264 kts 23°
2026-04-28 16:02 -22.72282 -43.13163 4722 ft 267 kts 24°
2026-04-28 16:03 -22.70590 -43.12339 5429 ft 269 kts 24°
2026-04-28 16:03 -22.68886 -43.11496 6135 ft 271 kts 24°
2026-04-28 16:03 -22.67171 -43.10641 6796 ft 274 kts 24°
2026-04-28 16:03 -22.65429 -43.09768 7411 ft 279 kts 24°
2026-04-28 16:04 -22.63653 -43.08875 8076 ft 281 kts 24°
2026-04-28 16:04 -22.61873 -43.07979 8728 ft 283 kts 24°
2026-04-28 16:04 -22.60084 -43.07079 9347 ft 287 kts 24°
2026-04-28 16:04 -22.58269 -43.06164 9983 ft 290 kts 24°
2026-04-28 16:05 -22.56425 -43.05235 10514 ft 297 kts 24°
2026-04-28 16:05 -22.54487 -43.04260 10702 ft 317 kts 24°
2026-04-28 16:05 -22.52408 -43.03215 10883 ft 336 kts 24°
2026-04-28 16:05 -22.50211 -43.02110 11025 ft 355 kts 24°
2026-04-28 16:06 -22.47941 -43.00967 11468 ft 363 kts 24°
2026-04-28 16:06 -22.45639 -42.99809 12041 ft 366 kts 24°
2026-04-28 16:06 -22.43323 -42.98645 12628 ft 369 kts 24°
2026-04-28 16:06 -22.40974 -42.97464 13215 ft 370 kts 24°
2026-04-28 16:07 -22.38653 -42.96298 13694 ft 374 kts 24°
2026-04-28 16:07 -22.36275 -42.95103 14191 ft 377 kts 24°
2026-04-28 16:07 -22.31456 -42.92684 15074 ft 384 kts 23°
2026-04-28 16:08 -22.29039 -42.91472 15472 ft 388 kts 23°
2026-04-28 16:08 -22.26556 -42.90226 15930 ft 389 kts 22°
2026-04-28 16:08 -22.24100 -42.88996 16303 ft 393 kts 22°
2026-04-28 16:09 -22.19086 -42.86485 17049 ft 397 kts 22°
2026-04-28 16:09 -22.16593 -42.85235 17433 ft 399 kts 22°
2026-04-28 16:09 -22.14045 -42.83961 17723 ft 403 kts 22°
2026-04-28 16:10 -22.08936 -42.81406 18394 ft 407 kts 22°
2026-04-28 16:10 -22.06340 -42.80108 18756 ft 409 kts 22°
2026-04-28 16:10 -22.01145 -42.77513 19437 ft 413 kts 22°
2026-04-28 16:11 -21.95920 -42.74905 20138 ft 416 kts 22°
2026-04-28 16:11 -21.90614 -42.72259 20736 ft 421 kts 22°
2026-04-28 16:12 -21.85252 -42.69586 21407 ft 424 kts 22°
2026-04-28 16:12 -21.82581 -42.68257 21695 ft 426 kts 22°
2026-04-28 16:13 -21.77184 -42.65571 22311 ft 430 kts 22°
2026-04-28 16:13 -21.74441 -42.64206 22611 ft 432 kts 22°
2026-04-28 16:13 -21.68965 -42.61485 23212 ft 435 kts 22°
2026-04-28 16:14 -21.63428 -42.58731 23792 ft 439 kts 22°
2026-04-28 16:14 -21.57996 -42.55624 24374 ft 444 kts 25°
2026-04-28 16:15 -21.52514 -42.52455 24939 ft 448 kts 25°
2026-04-28 16:15 -21.49793 -42.50886 25242 ft 449 kts 25°
2026-04-28 16:15 -21.47005 -42.49279 25492 ft 451 kts 25°
2026-04-28 16:16 -21.41461 -42.46086 26060 ft 455 kts 25°
2026-04-28 16:16 -21.38659 -42.44474 26337 ft 456 kts 25°
2026-04-28 16:17 -21.33038 -42.41242 26869 ft 460 kts 25°
2026-04-28 16:17 -21.30189 -42.39605 27123 ft 462 kts 25°
2026-04-28 16:17 -21.27360 -42.37980 27350 ft 464 kts 25°
2026-04-28 16:17 -21.24501 -42.36339 27640 ft 465 kts 25°
2026-04-28 16:18 -21.21640 -42.34698 27841 ft 468 kts 24°
2026-04-28 16:18 -21.18784 -42.33060 28114 ft 468 kts 24°
2026-04-28 16:18 -21.15907 -42.31410 28310 ft 471 kts 24°
2026-04-28 16:18 -21.13012 -42.29752 28550 ft 472 kts 24°
2026-04-28 16:19 -21.10108 -42.28088 28753 ft 474 kts 24°
2026-04-28 16:19 -21.07197 -42.26422 28976 ft 475 kts 24°
2026-04-28 16:19 -21.04259 -42.24740 29180 ft 477 kts 24°
2026-04-28 16:19 -21.01339 -42.23071 29333 ft 479 kts 24°
2026-04-28 16:20 -20.98394 -42.21387 29542 ft 480 kts 24°
2026-04-28 16:20 -20.95433 -42.19694 29697 ft 482 kts 24°
2026-04-28 16:20 -20.92458 -42.17995 29937 ft 481 kts 24°
2026-04-28 16:20 -20.89521 -42.16318 30157 ft 481 kts 24°
2026-04-28 16:21 -20.86561 -42.14628 30377 ft 481 kts 24°
2026-04-28 16:21 -20.83574 -42.12924 30588 ft 481 kts 24°
2026-04-28 16:21 -20.80647 -42.11254 30872 ft 479 kts 24°
2026-04-28 16:21 -20.77695 -42.09571 31160 ft 477 kts 25°
2026-04-28 16:22 -20.74766 -42.07902 31409 ft 476 kts 25°
2026-04-28 16:22 -20.71860 -42.06247 31626 ft 476 kts 25°
2026-04-28 16:22 -20.68930 -42.04580 31760 ft 477 kts 25°
2026-04-28 16:22 -20.65967 -42.02894 31970 ft 477 kts 25°
2026-04-28 16:23 -20.63031 -42.01224 32149 ft 477 kts 25°
2026-04-28 16:23 -20.60134 -41.99523 32315 ft 477 kts 26°
2026-04-28 16:23 -20.57255 -41.97797 32520 ft 477 kts 26°
2026-04-28 16:23 -20.54346 -41.96060 32698 ft 477 kts 26°
2026-04-28 16:24 -20.51425 -41.94316 32874 ft 476 kts 26°
2026-04-28 16:24 -20.48540 -41.92594 33085 ft 476 kts 26°
2026-04-28 16:24 -20.45667 -41.90881 33307 ft 475 kts 26°
2026-04-28 16:24 -20.42758 -41.89147 33502 ft 474 kts 26°
2026-04-28 16:25 -20.39871 -41.87426 33716 ft 474 kts 26°
2026-04-28 16:25 -20.36996 -41.85714 33879 ft 474 kts 26°
2026-04-28 16:25 -20.35069 -41.84568 33983 ft 474 kts 26°
2026-04-28 16:25 -20.31244 -41.82291 34252 ft 473 kts 26°
2026-04-28 16:26 -20.28337 -41.80562 34468 ft 473 kts 26°
2026-04-28 16:26 -20.25487 -41.78868 34601 ft 474 kts 27°
2026-04-28 16:26 -20.22603 -41.77154 34801 ft 473 kts 26°
2026-04-28 16:26 -20.19701 -41.75429 34955 ft 473 kts 26°
2026-04-28 16:27 -20.16820 -41.73719 35100 ft 472 kts 26°
2026-04-28 16:27 -20.13967 -41.72025 35119 ft 470 kts 26°
2026-04-28 16:28 -20.05329 -41.66904 35126 ft 473 kts 26°
2026-04-28 16:28 -19.99580 -41.63497 35115 ft 472 kts 27°
2026-04-28 16:29 -19.90966 -41.58400 35116 ft 472 kts 27°
2026-04-28 16:30 -19.82342 -41.53303 35107 ft 473 kts 27°
2026-04-28 16:30 -19.76578 -41.49900 35088 ft 473 kts 27°
2026-04-28 16:31 -19.70796 -41.46490 35084 ft 473 kts 27°
2026-04-28 16:31 -19.65056 -41.43106 35080 ft 473 kts 27°
2026-04-28 16:32 -19.59282 -41.39706 35071 ft 472 kts 27°
2026-04-28 16:32 -19.50640 -41.34622 35062 ft 473 kts 26°
2026-04-28 16:33 -19.45818 -41.31788 35058 ft 473 kts 27°
2026-04-28 16:33 -19.39102 -41.27844 35062 ft 473 kts 27°
2026-04-28 16:34 -19.33304 -41.24444 35065 ft 473 kts 27°
2026-04-28 16:34 -19.27545 -41.21070 35067 ft 473 kts 27°
2026-04-28 16:35 -19.21783 -41.17698 35073 ft 473 kts 27°
2026-04-28 16:35 -19.16013 -41.14324 35076 ft 473 kts 27°
2026-04-28 16:36 -19.10259 -41.10961 35083 ft 473 kts 27°
2026-04-28 16:36 -19.04466 -41.07579 35094 ft 473 kts 27°
2026-04-28 16:37 -18.98709 -41.04217 35105 ft 473 kts 27°
2026-04-28 16:38 -18.90036 -40.99157 35106 ft 473 kts 27°
2026-04-28 16:38 -18.84271 -40.95797 35099 ft 474 kts 27°
2026-04-28 16:39 -18.78477 -40.92424 35092 ft 473 kts 27°
2026-04-28 16:39 -18.72688 -40.89055 35082 ft 473 kts 27°
2026-04-28 16:40 -18.66908 -40.85695 35076 ft 473 kts 27°
2026-04-28 16:40 -18.61139 -40.82343 35068 ft 473 kts 27°
2026-04-28 16:41 -18.55375 -40.78997 35061 ft 474 kts 27°
2026-04-28 16:41 -18.49592 -40.75643 35056 ft 474 kts 27°
2026-04-28 16:42 -18.43771 -40.72269 35051 ft 473 kts 27°
2026-04-28 16:42 -18.37997 -40.68926 35050 ft 474 kts 27°
2026-04-28 16:43 -18.32218 -40.65584 35045 ft 473 kts 27°
2026-04-28 16:43 -18.26411 -40.62228 35041 ft 474 kts 27°
2026-04-28 16:44 -18.20637 -40.58894 35042 ft 474 kts 27°
2026-04-28 16:44 -18.14822 -40.55539 35035 ft 473 kts 27°
2026-04-28 16:45 -18.09072 -40.52223 35033 ft 473 kts 27°
2026-04-28 16:45 -18.03302 -40.48899 35029 ft 472 kts 27°
2026-04-28 16:46 -17.97514 -40.45567 35022 ft 473 kts 27°
2026-04-28 16:46 -17.91715 -40.42231 35018 ft 472 kts 27°
2026-04-28 16:47 -17.85944 -40.38914 35019 ft 472 kts 27°
2026-04-28 16:47 -17.80176 -40.35600 35021 ft 472 kts 27°
2026-04-28 16:48 -17.74365 -40.32339 35025 ft 471 kts 26°
2026-04-28 16:48 -17.68573 -40.29146 35026 ft 471 kts 26°
2026-04-28 16:49 -17.62758 -40.25941 35026 ft 471 kts 26°
2026-04-28 16:49 -17.56943 -40.22739 35027 ft 471 kts 26°
2026-04-28 16:50 -17.51115 -40.19532 35021 ft 470 kts 26°
2026-04-28 16:50 -17.45311 -40.16341 35023 ft 470 kts 26°
2026-04-28 16:51 -17.39526 -40.13161 35023 ft 470 kts 26°
2026-04-28 16:51 -17.33722 -40.09975 35026 ft 470 kts 26°
2026-04-28 16:52 -17.27946 -40.06805 35033 ft 469 kts 26°
2026-04-28 16:52 -17.22154 -40.03630 35035 ft 469 kts 26°
2026-04-28 16:53 -17.16350 -40.00450 35051 ft 468 kts 27°
2026-04-28 16:53 -17.10586 -39.97293 35055 ft 468 kts 26°
2026-04-28 16:54 -17.04797 -39.94126 35057 ft 468 kts 27°
2026-04-28 16:54 -16.98989 -39.90950 35059 ft 468 kts 26°
2026-04-28 16:55 -16.93218 -39.87799 35047 ft 468 kts 27°
2026-04-28 16:55 -16.87449 -39.84651 35036 ft 468 kts 27°
2026-04-28 16:56 -16.81644 -39.81485 35025 ft 468 kts 27°
2026-04-28 16:56 -16.75876 -39.78342 35019 ft 467 kts 27°
2026-04-28 16:57 -16.70103 -39.75197 35016 ft 467 kts 27°
2026-04-28 16:57 -16.64338 -39.72060 35017 ft 467 kts 27°
2026-04-28 16:58 -16.58558 -39.68916 35015 ft 467 kts 27°
2026-04-28 16:58 -16.52773 -39.65772 35016 ft 468 kts 27°
2026-04-28 16:59 -16.46989 -39.62631 35019 ft 468 kts 27°
2026-04-28 16:59 -16.41221 -39.59501 35020 ft 467 kts 27°
2026-04-28 17:00 -16.35448 -39.56370 35025 ft 467 kts 27°
2026-04-28 17:00 -16.29663 -39.53234 35024 ft 467 kts 27°
2026-04-28 17:01 -16.23914 -39.50120 35025 ft 467 kts 27°
2026-04-28 17:01 -16.18152 -39.47002 35021 ft 467 kts 27°
2026-04-28 17:02 -16.12354 -39.43865 35020 ft 468 kts 27°
2026-04-28 17:02 -16.06576 -39.40742 35016 ft 468 kts 27°
2026-04-28 17:03 -15.97868 -39.36038 35012 ft 467 kts 27°
2026-04-28 17:03 -15.92081 -39.32915 35015 ft 467 kts 27°
2026-04-28 17:04 -15.83427 -39.28248 35018 ft 467 kts 27°
2026-04-28 17:05 -15.74720 -39.23556 35018 ft 468 kts 27°
2026-04-28 17:06 -15.66074 -39.18901 35021 ft 468 kts 27°
2026-04-28 17:06 -15.57369 -39.14220 35017 ft 468 kts 27°
2026-04-28 17:07 -15.51580 -39.11110 35014 ft 468 kts 27°
2026-04-28 17:07 -15.45776 -39.07993 35012 ft 468 kts 27°
2026-04-28 17:08 -15.39993 -39.04889 35010 ft 469 kts 27°
2026-04-28 17:08 -15.34151 -39.01757 35009 ft 470 kts 27°
2026-04-28 17:09 -15.28332 -38.98637 35004 ft 470 kts 27°
2026-04-28 17:09 -15.22535 -38.95533 35007 ft 469 kts 27°
2026-04-28 17:10 -15.16667 -38.92566 35009 ft 468 kts 19°
2026-04-28 17:10 -15.10442 -38.90471 35007 ft 469 kts 18°
2026-04-28 17:11 -15.04220 -38.88426 35000 ft 469 kts 17°
2026-04-28 17:11 -14.97952 -38.86382 34994 ft 470 kts 17°
2026-04-28 17:12 -14.91707 -38.84352 34994 ft 470 kts 17°
2026-04-28 17:12 -14.85464 -38.82326 34994 ft 469 kts 17°
2026-04-28 17:13 -14.79264 -38.80316 34998 ft 469 kts 17°
2026-04-28 17:13 -14.72996 -38.78285 34993 ft 471 kts 18°
2026-04-28 17:14 -14.66729 -38.76255 34992 ft 470 kts 18°
2026-04-28 17:14 -14.60492 -38.74237 34989 ft 470 kts 18°
2026-04-28 17:15 -14.54215 -38.72204 34987 ft 470 kts 18°
2026-04-28 17:15 -14.48000 -38.70193 34988 ft 470 kts 18°
2026-04-28 17:16 -14.41751 -38.68172 34987 ft 470 kts 18°
2026-04-28 17:16 -14.35471 -38.66142 34986 ft 471 kts 18°
2026-04-28 17:17 -14.29224 -38.64124 34986 ft 471 kts 18°
2026-04-28 17:17 -14.22979 -38.62108 34986 ft 470 kts 18°
2026-04-28 17:18 -14.16732 -38.60092 34987 ft 469 kts 18°
2026-04-28 17:18 -14.10491 -38.58080 34987 ft 469 kts 18°
2026-04-28 17:19 -14.04262 -38.56073 34987 ft 468 kts 18°
2026-04-28 17:19 -13.98033 -38.54066 34985 ft 469 kts 18°
2026-04-28 17:20 -13.92797 -38.52380 34985 ft 469 kts 18°
2026-04-28 17:20 -13.85476 -38.50215 34989 ft 469 kts 15°
2026-04-28 17:21 -13.79147 -38.48513 34985 ft 469 kts 15°
2026-04-28 17:22 -13.69673 -38.45960 34982 ft 469 kts 15°
2026-04-28 17:22 -13.63316 -38.44247 34980 ft 469 kts 15°
2026-04-28 17:23 -13.53846 -38.41696 34978 ft 470 kts 15°
2026-04-28 17:23 -13.47508 -38.39990 34976 ft 471 kts 15°
2026-04-28 17:24 -13.41153 -38.38280 34973 ft 471 kts 15°
2026-04-28 17:24 -13.34807 -38.36574 34972 ft 470 kts 15°
2026-04-28 17:25 -13.25303 -38.34021 34973 ft 470 kts 15°
2026-04-28 17:26 -13.18927 -38.32309 34972 ft 471 kts 15°
2026-04-28 17:26 -13.12597 -38.30610 34977 ft 471 kts 15°
2026-04-28 17:27 -13.06217 -38.28899 34976 ft 470 kts 15°
2026-04-28 17:27 -12.99867 -38.27198 34979 ft 471 kts 15°
2026-04-28 17:28 -12.93529 -38.25501 34976 ft 471 kts 15°
2026-04-28 17:28 -12.83975 -38.22944 34977 ft 470 kts 15°
2026-04-28 17:29 -12.77631 -38.21248 34973 ft 471 kts 15°
2026-04-28 17:30 -12.68095 -38.18700 34968 ft 472 kts 15°
2026-04-28 17:30 -12.58531 -38.16146 34963 ft 471 kts 15°
2026-04-28 17:31 -12.48998 -38.13602 34961 ft 471 kts 15°
2026-04-28 17:32 -12.39445 -38.11055 34964 ft 471 kts 15°
2026-04-28 17:32 -12.33085 -38.09360 34966 ft 472 kts 15°
2026-04-28 17:33 -12.26726 -38.07667 34965 ft 471 kts 15°
2026-04-28 17:33 -12.21418 -38.06255 34968 ft 471 kts 15°
2026-04-28 17:34 -12.13973 -38.04274 34968 ft 471 kts 15°
2026-04-28 17:34 -12.07644 -38.02592 34970 ft 471 kts 15°
2026-04-28 17:35 -12.01263 -38.00896 34970 ft 470 kts 15°
2026-04-28 17:35 -11.94937 -37.99216 34973 ft 471 kts 15°
2026-04-28 17:36 -11.88583 -37.97529 34963 ft 472 kts 15°
2026-04-28 17:36 -11.82177 -37.95830 34951 ft 471 kts 15°
2026-04-28 17:37 -11.75814 -37.94142 34945 ft 472 kts 15°
2026-04-28 17:37 -11.69439 -37.92452 34947 ft 472 kts 15°
2026-04-28 17:38 -11.63097 -37.90772 34947 ft 472 kts 15°
2026-04-28 17:38 -11.56708 -37.89080 34948 ft 472 kts 15°
2026-04-28 17:39 -11.50339 -37.87394 34948 ft 472 kts 15°
2026-04-28 17:40 -11.40793 -37.84867 34953 ft 474 kts 15°
2026-04-28 17:40 -11.34406 -37.83178 34956 ft 474 kts 16°
2026-04-28 17:41 -11.27996 -37.81483 34956 ft 474 kts 15°
2026-04-28 17:41 -11.21620 -37.79798 34956 ft 473 kts 16°
2026-04-28 17:42 -11.15220 -37.78107 34956 ft 473 kts 16°
2026-04-28 17:42 -11.08834 -37.76420 34957 ft 473 kts 15°
2026-04-28 17:43 -11.02445 -37.74734 34956 ft 475 kts 16°
2026-04-28 17:43 -10.96028 -37.73042 34954 ft 475 kts 16°
2026-04-28 17:44 -10.89619 -37.71351 34955 ft 474 kts 16°
2026-04-28 17:44 -10.83173 -37.69653 34956 ft 474 kts 16°
2026-04-28 17:45 -10.76809 -37.67976 34959 ft 473 kts 16°
2026-04-28 17:45 -10.70405 -37.66288 34959 ft 473 kts 16°
2026-04-28 17:46 -10.64006 -37.64604 34960 ft 472 kts 16°
2026-04-28 17:46 -10.57631 -37.62927 34962 ft 473 kts 16°
2026-04-28 17:47 -10.51261 -37.61251 34959 ft 472 kts 16°
2026-04-28 17:47 -10.44857 -37.59569 34962 ft 473 kts 16°
2026-04-28 17:48 -10.38480 -37.57894 34958 ft 472 kts 16°
2026-04-28 17:48 -10.32121 -37.56224 34954 ft 472 kts 16°
2026-04-28 17:49 -10.25733 -37.54548 34951 ft 471 kts 16°
2026-04-28 17:49 -10.19348 -37.52872 34949 ft 471 kts 16°
2026-04-28 17:50 -10.12973 -37.51201 34946 ft 471 kts 16°
2026-04-28 17:50 -10.06640 -37.49541 34945 ft 471 kts 16°
2026-04-28 17:51 -10.00252 -37.47867 34941 ft 472 kts 16°
2026-04-28 17:51 -9.93875 -37.46198 34937 ft 471 kts 16°
2026-04-28 17:52 -9.87538 -37.44538 34934 ft 470 kts 16°
2026-04-28 17:52 -9.77935 -37.42025 34931 ft 470 kts 16°
2026-04-28 17:53 -9.71603 -37.40369 34934 ft 469 kts 16°
2026-04-28 17:53 -9.65250 -37.38709 34943 ft 469 kts 16°
2026-04-28 17:54 -9.58920 -37.37054 34952 ft 468 kts 16°
2026-04-28 17:54 -9.52580 -37.35398 34955 ft 469 kts 16°
2026-04-28 17:55 -9.46204 -37.33733 34961 ft 469 kts 16°
2026-04-28 17:55 -9.39851 -37.32075 34965 ft 468 kts 16°
2026-04-28 17:56 -9.33497 -37.30417 34968 ft 469 kts 16°
2026-04-28 17:56 -9.27182 -37.28769 34970 ft 468 kts 16°
2026-04-28 17:57 -9.20864 -37.27123 34976 ft 468 kts 16°
2026-04-28 17:57 -9.14543 -37.25475 34981 ft 467 kts 16°
2026-04-28 17:58 -9.08237 -37.23832 34988 ft 467 kts 16°
2026-04-28 17:58 -9.01944 -37.22193 34993 ft 468 kts 16°
2026-04-28 17:59 -8.95592 -37.20539 34999 ft 467 kts 17°
2026-04-28 17:59 -8.89281 -37.18897 35002 ft 467 kts 16°
2026-04-28 18:00 -8.82957 -37.17252 35005 ft 467 kts 16°
2026-04-28 18:00 -8.76646 -37.15611 35007 ft 466 kts 16°
2026-04-28 18:01 -8.70322 -37.13968 35013 ft 465 kts 16°
2026-04-28 18:01 -8.64041 -37.12336 35019 ft 465 kts 16°
2026-04-28 18:02 -8.57760 -37.10704 35026 ft 466 kts 16°
2026-04-28 18:02 -8.51450 -37.09066 35031 ft 465 kts 16°
2026-04-28 18:03 -8.45134 -37.07424 35034 ft 466 kts 16°
2026-04-28 18:03 -8.38826 -37.05786 35034 ft 466 kts 16°
2026-04-28 18:04 -8.32517 -37.04149 35037 ft 466 kts 16°
2026-04-28 18:04 -8.26229 -37.02516 35038 ft 466 kts 16°
2026-04-28 18:05 -8.20937 -37.01143 35038 ft 466 kts 16°
2026-04-28 18:05 -8.13599 -36.99240 35034 ft 465 kts 16°
2026-04-28 18:06 -8.07290 -36.97604 35030 ft 466 kts 16°
2026-04-28 18:06 -8.01016 -36.95977 35025 ft 466 kts 16°
2026-04-28 18:07 -7.94689 -36.94338 35021 ft 465 kts 16°
2026-04-28 18:07 -7.88365 -36.92700 35020 ft 464 kts 16°
2026-04-28 18:08 -7.82037 -36.91061 35012 ft 465 kts 16°
2026-04-28 18:08 -7.75764 -36.89439 35009 ft 464 kts 16°
2026-04-28 18:09 -7.69473 -36.87810 35007 ft 463 kts 16°
2026-04-28 18:09 -7.63205 -36.86189 35007 ft 463 kts 16°
2026-04-28 18:10 -7.56943 -36.84569 35008 ft 463 kts 16°
2026-04-28 18:10 -7.50646 -36.82942 35011 ft 464 kts 16°
2026-04-28 18:11 -7.44383 -36.81324 35008 ft 464 kts 16°
2026-04-28 18:11 -7.41235 -36.80510 34705 ft 467 kts 16°
2026-04-28 18:11 -7.38110 -36.79704 34084 ft 462 kts 16°
2026-04-28 18:12 -7.35010 -36.78904 33349 ft 445 kts 17°
2026-04-28 18:12 -7.32038 -36.78136 32874 ft 444 kts 17°
2026-04-28 18:12 -7.28980 -36.77344 32263 ft 458 kts 17°
2026-04-28 18:12 -7.25883 -36.76544 31683 ft 463 kts 17°
2026-04-28 18:13 -7.22718 -36.75728 31116 ft 461 kts 17°
2026-04-28 18:13 -7.19622 -36.74930 30584 ft 459 kts 17°
2026-04-28 18:13 -7.16516 -36.74128 30063 ft 459 kts 17°
2026-04-28 18:13 -7.13398 -36.73322 29544 ft 462 kts 17°
2026-04-28 18:14 -7.10284 -36.72517 28897 ft 456 kts 17°
2026-04-28 18:14 -7.07206 -36.71722 28379 ft 448 kts 18°
2026-04-28 18:14 -7.04204 -36.70944 27881 ft 448 kts 18°
2026-04-28 18:14 -7.01177 -36.70161 27375 ft 448 kts 18°
2026-04-28 18:15 -6.98136 -36.69374 26859 ft 446 kts 18°
2026-04-28 18:15 -6.95123 -36.68595 26342 ft 440 kts 18°
2026-04-28 18:15 -6.92148 -36.67827 25832 ft 435 kts 18°
2026-04-28 18:15 -6.89234 -36.67073 25332 ft 431 kts 18°
2026-04-28 18:16 -6.86331 -36.66322 24832 ft 427 kts 19°
2026-04-28 18:16 -6.83421 -36.65570 24331 ft 423 kts 19°
2026-04-28 18:16 -6.80613 -36.64845 23846 ft 419 kts 19°
2026-04-28 18:16 -6.77768 -36.64109 23356 ft 415 kts 19°
2026-04-28 18:17 -6.74993 -36.63393 22876 ft 410 kts 19°
2026-04-28 18:17 -6.72222 -36.62676 22394 ft 407 kts 20°
2026-04-28 18:17 -6.69495 -36.61962 21923 ft 403 kts 22°
2026-04-28 18:17 -6.66893 -36.60945 21471 ft 395 kts 32°
2026-04-28 18:18 -6.64461 -36.59619 20994 ft 393 kts 33°
2026-04-28 18:18 -6.62072 -36.58302 20542 ft 389 kts 33°
2026-04-28 18:18 -6.59717 -36.56987 20459 ft 381 kts 33°
2026-04-28 18:18 -6.58183 -36.56131 20460 ft 377 kts 33°
2026-04-28 18:19 -6.55157 -36.54442 20466 ft 370 kts 33°
2026-04-28 18:19 -6.52918 -36.53193 20472 ft 365 kts 33°
2026-04-28 18:19 -6.50707 -36.51959 20473 ft 361 kts 33°
2026-04-28 18:19 -6.48495 -36.50724 20475 ft 358 kts 33°
2026-04-28 18:20 -6.46315 -36.49507 20475 ft 355 kts 33°
2026-04-28 18:20 -6.44154 -36.48301 20473 ft 352 kts 33°
2026-04-28 18:20 -6.42025 -36.47112 20474 ft 350 kts 34°
2026-04-28 18:20 -6.39898 -36.45924 20471 ft 348 kts 34°
2026-04-28 18:21 -6.37769 -36.44735 20472 ft 346 kts 34°
2026-04-28 18:21 -6.35639 -36.43546 20469 ft 345 kts 33°
2026-04-28 18:21 -6.33551 -36.42381 20463 ft 344 kts 34°
2026-04-28 18:21 -6.31446 -36.41205 20464 ft 343 kts 33°
2026-04-28 18:22 -6.29352 -36.40036 20465 ft 342 kts 34°
2026-04-28 18:22 -6.27279 -36.38878 20464 ft 342 kts 34°
2026-04-28 18:22 -6.25175 -36.37705 20464 ft 341 kts 34°
2026-04-28 18:22 -6.23107 -36.36550 20462 ft 340 kts 34°
2026-04-28 18:23 -6.21044 -36.35398 20461 ft 340 kts 34°
2026-04-28 18:23 -6.18956 -36.34232 20467 ft 339 kts 34°
2026-04-28 18:23 -6.16885 -36.33076 20468 ft 339 kts 33°
2026-04-28 18:23 -6.14808 -36.31916 20468 ft 340 kts 34°
2026-04-28 18:24 -6.12721 -36.30751 20465 ft 340 kts 34°
2026-04-28 18:24 -6.11351 -36.29986 20466 ft 340 kts 33°
2026-04-28 18:24 -6.08584 -36.28442 20461 ft 340 kts 34°
2026-04-28 18:24 -6.06515 -36.27287 20458 ft 340 kts 33°
2026-04-28 18:25 -6.04434 -36.26125 20451 ft 340 kts 34°
2026-04-28 18:25 -6.02364 -36.24970 20450 ft 340 kts 34°
2026-04-28 18:25 -6.00285 -36.23809 20449 ft 340 kts 34°
2026-04-28 18:26 -5.96111 -36.21481 20441 ft 340 kts 34°
2026-04-28 18:26 -5.94053 -36.20332 20442 ft 340 kts 34°
2026-04-28 18:26 -5.91972 -36.19171 20439 ft 340 kts 34°
2026-04-28 18:26 -5.89880 -36.18003 20438 ft 340 kts 34°
2026-04-28 18:27 -5.87811 -36.16849 20432 ft 341 kts 34°
2026-04-28 18:27 -5.85721 -36.15682 20433 ft 341 kts 34°
2026-04-28 18:27 -5.83659 -36.14532 20431 ft 341 kts 34°
2026-04-28 18:27 -5.81556 -36.13358 20428 ft 341 kts 34°
2026-04-28 18:28 -5.79473 -36.12196 20430 ft 341 kts 33°
2026-04-28 18:28 -5.77417 -36.11048 20428 ft 341 kts 34°
2026-04-28 18:28 -5.75339 -36.09889 20426 ft 341 kts 34°
2026-04-28 18:28 -5.73259 -36.08729 20423 ft 341 kts 34°
2026-04-28 18:29 -5.71155 -36.07555 20420 ft 341 kts 34°
2026-04-28 18:29 -5.69084 -36.06400 20418 ft 341 kts 34°
2026-04-28 18:29 -5.67028 -36.05253 20419 ft 340 kts 34°
2026-04-28 18:29 -5.64926 -36.04081 20417 ft 341 kts 34°
2026-04-28 18:30 -5.62859 -36.02927 20416 ft 341 kts 34°
2026-04-28 18:30 -5.61468 -36.02152 20413 ft 341 kts 34°
2026-04-28 18:30 -5.58705 -36.00610 20409 ft 341 kts 34°
2026-04-28 18:30 -5.56690 -35.99487 20410 ft 341 kts 34°
2026-04-28 18:31 -5.54601 -35.98322 20410 ft 341 kts 34°
2026-04-28 18:31 -5.52528 -35.97166 20413 ft 341 kts 34°
2026-04-28 18:31 -5.50448 -35.96006 20416 ft 341 kts 34°
2026-04-28 18:31 -5.48375 -35.94850 20416 ft 341 kts 34°
2026-04-28 18:32 -5.46282 -35.93684 20417 ft 341 kts 34°
2026-04-28 18:32 -5.44202 -35.92523 20418 ft 341 kts 34°
2026-04-28 18:32 -5.42132 -35.91369 20419 ft 341 kts 34°
2026-04-28 18:32 -5.40054 -35.90210 20415 ft 341 kts 34°
2026-04-28 18:33 -5.37962 -35.89044 20416 ft 341 kts 34°
2026-04-28 18:33 -5.35879 -35.87882 20414 ft 341 kts 34°
2026-04-28 18:33 -5.33796 -35.86721 20414 ft 341 kts 34°
2026-04-28 18:33 -5.31730 -35.85569 20413 ft 341 kts 34°
2026-04-28 18:34 -5.29630 -35.84399 20413 ft 341 kts 34°
2026-04-28 18:34 -5.27553 -35.83241 20413 ft 341 kts 34°
2026-04-28 18:34 -5.25481 -35.82086 20412 ft 341 kts 34°
2026-04-28 18:34 -5.23386 -35.80919 20413 ft 341 kts 34°
2026-04-28 18:35 -5.21317 -35.79765 20409 ft 341 kts 34°
2026-04-28 18:35 -5.19237 -35.78606 20409 ft 341 kts 34°
2026-04-28 18:35 -5.17143 -35.77439 20407 ft 342 kts 34°
2026-04-28 18:35 -5.15066 -35.76281 20408 ft 342 kts 34°
2026-04-28 18:36 -5.12962 -35.75108 20405 ft 342 kts 34°
2026-04-28 18:36 -5.10904 -35.73962 20404 ft 342 kts 34°
2026-04-28 18:36 -5.08810 -35.72795 20404 ft 341 kts 34°
2026-04-28 18:36 -5.06740 -35.71641 20401 ft 341 kts 34°
2026-04-28 18:37 -5.04655 -35.70479 20397 ft 341 kts 34°
2026-04-28 18:37 -5.02576 -35.69321 20393 ft 341 kts 34°
2026-04-28 18:37 -5.00481 -35.68153 20391 ft 342 kts 34°
2026-04-28 18:37 -4.98402 -35.66996 20387 ft 342 kts 34°
2026-04-28 18:38 -4.96326 -35.65838 20386 ft 342 kts 34°
2026-04-28 18:38 -4.94225 -35.64668 20384 ft 342 kts 34°
2026-04-28 18:38 -4.92157 -35.63515 20382 ft 342 kts 34°
2026-04-28 18:38 -4.90060 -35.62347 20380 ft 343 kts 34°
2026-04-28 18:39 -4.87969 -35.61182 20376 ft 343 kts 34°
2026-04-28 18:39 -4.85877 -35.60017 20377 ft 343 kts 34°
2026-04-28 18:39 -4.83790 -35.58854 20376 ft 343 kts 34°
2026-04-28 18:39 -4.81695 -35.57687 20376 ft 343 kts 34°
2026-04-28 18:40 -4.79605 -35.56524 20375 ft 343 kts 34°
2026-04-28 18:40 -4.77516 -35.55360 20376 ft 343 kts 34°
2026-04-28 18:40 -4.75426 -35.54195 20376 ft 343 kts 34°
2026-04-28 18:40 -4.73324 -35.53025 20375 ft 343 kts 34°
2026-04-28 18:41 -4.71242 -35.51864 20376 ft 343 kts 34°
2026-04-28 18:41 -4.69164 -35.50707 20375 ft 343 kts 34°
2026-04-28 18:41 -4.67076 -35.49544 20375 ft 343 kts 34°
2026-04-28 18:41 -4.64976 -35.48375 20374 ft 343 kts 34°
2026-04-28 18:42 -4.62878 -35.47207 20376 ft 343 kts 34°
2026-04-28 18:42 -4.60795 -35.46046 20374 ft 343 kts 34°
2026-04-28 18:42 -4.58716 -35.44889 20375 ft 343 kts 34°
2026-04-28 18:42 -4.56616 -35.43720 20375 ft 343 kts 34°
2026-04-28 18:43 -4.54517 -35.42551 20375 ft 343 kts 34°
2026-04-28 18:43 -4.52416 -35.41381 20374 ft 344 kts 34°
2026-04-28 18:43 -4.50333 -35.40221 20375 ft 344 kts 34°
2026-04-28 18:43 -4.48231 -35.39050 20375 ft 344 kts 34°
2026-04-28 18:44 -4.46151 -35.37892 20375 ft 344 kts 34°
2026-04-28 18:44 -4.41940 -35.35548 20377 ft 344 kts 34°
2026-04-28 18:44 -4.39848 -35.34383 20386 ft 344 kts 34°
2026-04-28 18:45 -4.37755 -35.33218 20388 ft 344 kts 34°
2026-04-28 18:45 -4.35656 -35.32049 20390 ft 344 kts 33°
2026-04-28 18:45 -4.33555 -35.30879 20393 ft 345 kts 34°
2026-04-28 18:45 -4.31449 -35.29707 20396 ft 345 kts 33°
2026-04-28 18:46 -4.29350 -35.28539 20398 ft 345 kts 33°
2026-04-28 18:46 -4.27232 -35.27360 20397 ft 346 kts 34°
2026-04-28 18:46 -4.25124 -35.26187 20398 ft 346 kts 34°
2026-04-28 18:46 -4.23019 -35.25015 20399 ft 346 kts 34°
2026-04-28 18:47 -4.20898 -35.23835 20400 ft 346 kts 33°
2026-04-28 18:47 -4.18785 -35.22658 20399 ft 347 kts 33°
2026-04-28 18:47 -4.16661 -35.21476 20403 ft 347 kts 33°
2026-04-28 18:47 -4.14555 -35.20304 20403 ft 347 kts 33°
2026-04-28 18:48 -4.12442 -35.19127 20400 ft 347 kts 33°
2026-04-28 18:48 -4.10309 -35.17941 20401 ft 347 kts 33°
2026-04-28 18:48 -4.08197 -35.16766 20401 ft 347 kts 33°
2026-04-28 18:48 -4.06098 -35.15597 20400 ft 347 kts 33°
2026-04-28 18:49 -4.03980 -35.14419 20402 ft 348 kts 34°
2026-04-28 18:49 -4.02545 -35.13620 20402 ft 348 kts 33°
2026-04-28 18:49 -3.99733 -35.12056 20402 ft 348 kts 34°
2026-04-28 18:49 -3.97589 -35.10863 20402 ft 348 kts 33°
2026-04-28 18:50 -3.95492 -35.09697 20402 ft 348 kts 34°
2026-04-28 18:50 -3.93350 -35.08505 20400 ft 348 kts 33°
2026-04-28 18:50 -3.91240 -35.07330 20402 ft 348 kts 34°
2026-04-28 18:50 -3.89094 -35.06137 20402 ft 348 kts 34°
2026-04-28 18:51 -3.86968 -35.04953 20402 ft 348 kts 33°
2026-04-28 18:51 -3.84844 -35.03772 20401 ft 348 kts 33°
2026-04-28 18:51 -3.82744 -35.02604 20401 ft 348 kts 34°
2026-04-28 18:51 -3.80617 -35.01421 20400 ft 348 kts 34°
2026-04-28 18:52 -3.78479 -35.00232 20398 ft 348 kts 34°
2026-04-28 18:52 -3.76371 -34.99059 20400 ft 348 kts 34°
2026-04-28 18:52 -3.74269 -34.97889 20399 ft 348 kts 34°
2026-04-28 18:52 -3.72144 -34.96708 20399 ft 348 kts 33°
2026-04-28 18:53 -3.70019 -34.95526 20400 ft 348 kts 34°
2026-04-28 18:53 -3.67889 -34.94341 20399 ft 348 kts 34°
2026-04-28 18:53 -3.65767 -34.93161 20401 ft 348 kts 34°
2026-04-28 18:53 -3.63645 -34.91980 20398 ft 348 kts 33°
2026-04-28 18:54 -3.61520 -34.90799 20400 ft 348 kts 34°
2026-04-28 18:54 -3.59416 -34.89628 20399 ft 348 kts 34°
2026-04-28 18:54 -3.57286 -34.88443 20399 ft 348 kts 34°
2026-04-28 18:54 -3.55158 -34.87261 20400 ft 348 kts 34°
2026-04-28 18:55 -3.53042 -34.86084 20397 ft 348 kts 34°
2026-04-28 18:55 -3.50909 -34.84897 20401 ft 348 kts 34°
2026-04-28 18:55 -3.48806 -34.83728 20398 ft 348 kts 34°
2026-04-28 18:55 -3.46668 -34.82539 20398 ft 348 kts 33°
2026-04-28 18:56 -3.44551 -34.81362 20398 ft 348 kts 34°
2026-04-28 18:56 -3.42427 -34.80181 20398 ft 348 kts 34°
2026-04-28 18:56 -3.40300 -34.78999 20400 ft 348 kts 34°
2026-04-28 18:56 -3.38184 -34.77822 20395 ft 348 kts 34°
2026-04-28 18:57 -3.36079 -34.76651 20398 ft 348 kts 34°
2026-04-28 18:57 -3.33952 -34.75469 20396 ft 348 kts 34°
2026-04-28 18:57 -3.31832 -34.74290 20392 ft 348 kts 34°
2026-04-28 18:57 -3.29699 -34.73105 20390 ft 348 kts 34°
2026-04-28 18:58 -3.27562 -34.71916 20385 ft 348 kts 34°
2026-04-28 18:58 -3.25444 -34.70738 20383 ft 348 kts 34°
2026-04-28 18:58 -3.23341 -34.69569 20385 ft 348 kts 34°
2026-04-28 18:58 -3.21201 -34.68380 20382 ft 348 kts 34°
2026-04-28 18:59 -3.19100 -34.67212 20382 ft 348 kts 33°
2026-04-28 18:59 -3.16978 -34.66033 20384 ft 348 kts 34°
2026-04-28 18:59 -3.14841 -34.64844 20382 ft 348 kts 34°
2026-04-28 18:59 -3.12715 -34.63663 20382 ft 348 kts 34°
2026-04-28 19:00 -3.10603 -34.62489 20384 ft 348 kts 34°
2026-04-28 19:00 -3.08494 -34.61317 20384 ft 348 kts 34°
2026-04-28 19:00 -3.06368 -34.60136 20383 ft 348 kts 34°
2026-04-28 19:00 -3.04252 -34.58958 20384 ft 348 kts 34°
2026-04-28 19:01 -3.02115 -34.57771 20385 ft 348 kts 34°
2026-04-28 19:01 -3.00004 -34.56598 20384 ft 348 kts 34°
2026-04-28 19:01 -2.97890 -34.55422 20385 ft 348 kts 34°
2026-04-28 19:01 -2.95753 -34.54234 20385 ft 348 kts 34°
2026-04-28 19:02 -2.93635 -34.53057 20383 ft 347 kts 34°
2026-04-28 19:02 -2.91509 -34.51877 20385 ft 347 kts 34°
2026-04-28 19:02 -2.89409 -34.50708 20383 ft 347 kts 34°
2026-04-28 19:02 -2.87274 -34.49522 20384 ft 347 kts 34°
2026-04-28 19:03 -2.85163 -34.48350 20385 ft 347 kts 34°
2026-04-28 19:03 -2.83059 -34.47180 20385 ft 347 kts 34°
2026-04-28 19:03 -2.80927 -34.45996 20382 ft 347 kts 34°
2026-04-28 19:03 -2.78805 -34.44816 20384 ft 347 kts 34°
2026-04-28 19:04 -2.76690 -34.43641 20388 ft 346 kts 34°
2026-04-28 19:04 -2.74576 -34.42466 20388 ft 346 kts 34°
2026-04-28 19:04 -2.72486 -34.41304 20390 ft 346 kts 34°
2026-04-28 19:04 -2.70382 -34.40136 20393 ft 346 kts 34°
2026-04-28 19:05 -2.68244 -34.38947 20395 ft 346 kts 34°
2026-04-28 19:05 -2.66155 -34.37786 20393 ft 346 kts 34°
2026-04-28 19:05 -2.64036 -34.36609 20393 ft 346 kts 34°
2026-04-28 19:05 -2.61920 -34.35434 20395 ft 346 kts 34°
2026-04-28 19:06 -2.59816 -34.34264 20400 ft 346 kts 33°
2026-04-28 19:06 -2.57691 -34.33083 20401 ft 346 kts 33°
2026-04-28 19:06 -2.55587 -34.31914 20402 ft 347 kts 33°
2026-04-28 19:06 -2.53472 -34.30739 20403 ft 347 kts 34°
2026-04-28 19:07 -2.51369 -34.29571 20402 ft 347 kts 33°
2026-04-28 19:07 -2.49254 -34.28396 20403 ft 347 kts 34°
2026-04-28 19:07 -2.47104 -34.27264 20402 ft 350 kts 26°
2026-04-28 19:07 -2.44727 -34.26640 20426 ft 358 kts 10°
2026-04-28 19:08 -2.42201 -34.26712 20427 ft 367 kts 353°
2026-04-28 19:08 -2.39715 -34.27508 20429 ft 375 kts 336°